STARLINK-32354, 61932

Orbit data source: Space-Track

STARLINK-32354, 61932 is a payload satellite owned by SpaceX/Seattle (US) in LEO that was launched on Mon, 11 Nov 2024 UTC via an FALCON 9 launch vehicle from the Air Force Eastern Test Range (AFETR). Payload-class satellites include a variety of spacecraft equipped with specific instruments for various scientific and technological missions. These include communications satellites like Starlink; space stations such as the ISS; scientific satellites like the Hubble; Earth observation satellites from companies like Planet Labs, Umbra, and HawkEye 360; GPS; miniature CubeSats for education and research; and military/defense satellites.

Loading next visibility...
Identifier
61932, 2024-207W
Orbit
LEO
Country
Flag of USUS
Related business
Manufacturer
SpaceX/Seattle
Mission
Operational Commercial Communications
Bus & Motor
STARLINK V2M, Unknown motor
Mass
730 kg wet, ~700 kg dry
Launch date (UTC)
2024-11-11 (1 year ago)
Launch vehicle
FALCON 9
Launch site
Air Force Eastern Test Range (AFETR)
Object type
Payload
Rocket body
Debris
Shape & HBR
Box + 2 Pan, 17.7 m
Radar Cross Section
33.884 m², Large (>1 m²)

Expand to show TLE details & history
Last TLE update: 9 hours ago

TLE from 9 hours ago
0 STARLINK-32354
1 61932U 24207W   26073.23574393  .00028258  00000-0  10317-2 0  9999
2 61932  43.0015 259.8441 0001312 278.0453  82.0250 15.27605643 75867
Epoch: 2026-03-14T05:39Z
TLE epoch observation values (Epoch: 2026-03-14T05:39:28.275Z)
Latitude
-0.00001°
Longitude
3.11645°
Altitude
482.623 km
Speed
7.626 km/s
True Right ascension
17h 19m 22s
True Declination
0° 00' 00"
Sunlit
Object was in daylight at epoch
Visualization orbit readout
Latitude
Unknown
Longitude
Unknown
Altitude
Unknown
Speed
Unknown
Apparent Right ascension
Unknown
Apparent Declination
Unknown
Sunlit
N/A
Visualization observer readout
Local Sidereal Time
19:15:39
Azimuth
Unknown
Elevation
Unknown
Doppler factor
Unknown
Orbital elements
Apogee altitude
485.818 km
Perigee altitude
484.017 km
Semi-major axis
6,863.054 km
Eccentricity
0.00013
Inclination
43.0015°
RAAN
259.8441°
Arg. of periapsis
278.0453°
True anomaly
82.03989°
Mean anomaly
82.025°
Eccentric anomaly
82.03244°
Mean motion
3.81739 °/min
Orbital period
94.31 mins
BSTAR
0.0010317
Loading maneuver chart data...
Computing Atmospheric mass density...
Loading historical data...
Loading historical data...
Loading historical data...
Loading historical data...
Loading historical data...
Loading historical data...
Loading historical data...

Documentation

Showing up to 5 results
|